When you browse on this site, cookies collect data to enhance your experience and personalize the content and advertising you see.
Visit our Privacy Policy to learn more. By continuing to use the site, you agree to this use of cookies and data.
  • In Spain
  • List of Countries
  • For 7 days
  • Water Temperature
  • Weather Map
  • Weather Widgets
  • user-avatar
    Login

    Hourly Weather Loncoche

    Today, 29 March, Sunday

    Time Temperature Precipitation Wind Pressure Humidity
    00:00 +9°C° 0 mm 1 mps 754 mmHg 96%
    01:00 +9°C° 0 mm 1 mps 754 mmHg 97%
    02:00 +9°C° 0 mm 1 mps 754 mmHg 98%
    03:00 +8°C° 0 mm 1 mps 754 mmHg 98%
    04:00 +8°C° 0 mm 1 mps 754 mmHg 98%
    05:00 +8°C° 0 mm 1 mps 754 mmHg 97%
    06:00 +8°C° 0 mm 1 mps 754 mmHg 96%
    07:00 +8°C° 0 mm 1 mps 754 mmHg 95%
    08:00 +11°C° 0 mm 1 mps 754 mmHg 83%
    09:00 +14°C° 0 mm 1 mps 754 mmHg 71%
    10:00 +16°C° 0 mm 1 mps 754 mmHg 59%
    11:00 +18°C° 0 mm 2 mps 754 mmHg 53%
    12:00 +19°C° 0 mm 2 mps 754 mmHg 46%
    13:00 +20°C° 0 mm 2 mps 754 mmHg 39%
    14:00 +20°C° 0 mm 2 mps 754 mmHg 40%
    15:00 +20°C° 0 mm 2 mps 754 mmHg 41%
    16:00 +19°C° 0 mm 2 mps 754 mmHg 42%
    17:00 +17°C° 0 mm 2 mps 754 mmHg 54%
    18:00 +14°C° 0 mm 1 mps 755 mmHg 65%
    19:00 +11°C° 0 mm 1 mps 755 mmHg 77%
    20:00 +10°C° 0 mm 1 mps 755 mmHg 81%
    21:00 +10°C° 0 mm 1 mps 755 mmHg 86%
    22:00 +9°C° 0 mm 1 mps 755 mmHg 90%
    23:00 +8°C° 0 mm 1 mps 755 mmHg 92%

    Tomorrow, 30 March, Monday

    Time Temperature Precipitation Wind Pressure Humidity
    00:00 +8°C° 0 mm 1 mps 755 mmHg 94%
    01:00 +7°C° 0 mm 1 mps 755 mmHg 96%
    02:00 +7°C° 0 mm 1 mps 754 mmHg 97%
    03:00 +7°C° 0 mm 1 mps 754 mmHg 97%
    04:00 +6°C° 0 mm 1 mps 754 mmHg 97%
    05:00 +6°C° 0 mm 1 mps 754 mmHg 96%
    06:00 +7°C° 0 mm 1 mps 754 mmHg 94%
    07:00 +7°C° 0 mm 1 mps 754 mmHg 93%
    08:00 +10°C° 0 mm 1 mps 754 mmHg 79%
    09:00 +12°C° 0 mm 1 mps 754 mmHg 66%
    10:00 +15°C° 0 mm 1 mps 754 mmHg 52%
    11:00 +17°C° 0 mm 2 mps 753 mmHg 47%
    12:00 +18°C° 0 mm 2 mps 753 mmHg 42%
    13:00 +20°C° 0 mm 2 mps 753 mmHg 37%
    14:00 +20°C° 0 mm 2 mps 752 mmHg 38%
    15:00 +20°C° 0 mm 2 mps 752 mmHg 39%
    16:00 +20°C° 0 mm 2 mps 752 mmHg 39%
    17:00 +18°C° 0 mm 2 mps 752 mmHg 48%
    18:00 +15°C° 0 mm 1 mps 753 mmHg 56%
    19:00 +12°C° 0 mm 1 mps 753 mmHg 65%
    20:00 +11°C° 0 mm 1 mps 753 mmHg 69%
    21:00 +10°C° 0 mm 1 mps 753 mmHg 74%
    22:00 +9°C° 0 mm 1 mps 753 mmHg 79%
    23:00 +8°C° 0 mm 1 mps 753 mmHg 83%

    Day after tomorrow, 31 March, Tuesday

    Time Temperature Precipitation Wind Pressure Humidity
    00:00 +8°C° 0 mm 1 mps 752 mmHg 87%
    01:00 +7°C° 0 mm 1 mps 752 mmHg 92%
    02:00 +7°C° 0 mm 1 mps 752 mmHg 94%
    03:00 +7°C° 0 mm 1 mps 752 mmHg 96%
    04:00 +7°C° 0 mm 1 mps 751 mmHg 98%
    05:00 +7°C° 0 mm 1 mps 752 mmHg 96%
    06:00 +8°C° 0 mm 1 mps 752 mmHg 94%
    07:00 +9°C° 0 mm 1 mps 752 mmHg 92%
    08:00 +11°C° 0 mm 1 mps 752 mmHg 86%
    09:00 +12°C° 0 mm 1 mps 752 mmHg 79%
    10:00 +13°C° 0 mm 1 mps 751 mmHg 73%
    11:00 +15°C° 0 mm 2 mps 751 mmHg 66%
    12:00 +17°C° 0 mm 2 mps 751 mmHg 60%
    13:00 +19°C° 0 mm 2 mps 751 mmHg 54%
    14:00 +19°C° 0 mm 2 mps 751 mmHg 52%
    15:00 +19°C° 0 mm 2 mps 751 mmHg 51%
    16:00 +19°C° 0 mm 2 mps 751 mmHg 50%
    17:00 +16°C° 0 mm 2 mps 752 mmHg 60%
    18:00 +14°C° 0 mm 1 mps 752 mmHg 70%
    19:00 +11°C° 0 mm 1 mps 753 mmHg 80%
    20:00 +10°C° 0 mm 1 mps 753 mmHg 84%
    21:00 +9°C° 0 mm 1 mps 754 mmHg 89%
    22:00 +8°C° 0 mm 1 mps 754 mmHg 93%
    23:00 +8°C° 0 mm 1 mps 754 mmHg 94%

    1 April, Wednesday

    Time Temperature Precipitation Wind Pressure Humidity
    00:00 +8°C° 0 mm 1 mps 754 mmHg 96%
    01:00 +7°C° 0 mm 1 mps 754 mmHg 98%
    02:00 +7°C° 0 mm 1 mps 755 mmHg 98%
    03:00 +7°C° 0 mm 1 mps 755 mmHg 98%
    04:00 +6°C° 0 mm 1 mps 755 mmHg 99%
    05:00 +7°C° 0 mm 1 mps 755 mmHg 97%
    06:00 +7°C° 0 mm 1 mps 756 mmHg 96%
    07:00 +7°C° 0 mm 1 mps 756 mmHg 95%
    08:00 +10°C° 0 mm 1 mps 756 mmHg 82%
    09:00 +12°C° 0 mm 1 mps 756 mmHg 69%
    10:00 +15°C° 0 mm 2 mps 756 mmHg 56%
    11:00 +16°C° 0 mm 2 mps 756 mmHg 50%
    12:00 +18°C° 0 mm 2 mps 756 mmHg 45%
    13:00 +20°C° 0 mm 3 mps 756 mmHg 39%
    14:00 +20°C° 0 mm 3 mps 756 mmHg 40%
    15:00 +20°C° 0 mm 3 mps 756 mmHg 41%
    16:00 +20°C° 0 mm 3 mps 756 mmHg 42%
    17:00 +17°C° 0 mm 2 mps 756 mmHg 49%
    18:00 +15°C° 0 mm 2 mps 757 mmHg 56%
    19:00 +12°C° 0 mm 2 mps 757 mmHg 62%
    20:00 +11°C° 0 mm 1 mps 757 mmHg 68%
    21:00 +10°C° 0 mm 1 mps 758 mmHg 73%
    22:00 +9°C° 0 mm 1 mps 758 mmHg 78%
    23:00 +8°C° 0 mm 1 mps 758 mmHg 83%

    2 April, Thursday

    Time Temperature Precipitation Wind Pressure Humidity
    00:00 +8°C° 0 mm 1 mps 757 mmHg 87%
    01:00 +7°C° 0 mm 1 mps 757 mmHg 91%
    02:00 +7°C° 0 mm 1 mps 757 mmHg 93%
    03:00 +7°C° 0 mm 1 mps 757 mmHg 94%
    04:00 +7°C° 0 mm 1 mps 757 mmHg 95%
    05:00 +7°C° 0 mm 1 mps 756 mmHg 93%
    06:00 +7°C° 0 mm 1 mps 756 mmHg 91%
    07:00 +8°C° 0 mm 1 mps 756 mmHg 89%
    08:00 +11°C° 0 mm 1 mps 756 mmHg 76%
    09:00 +14°C° 0 mm 2 mps 755 mmHg 62%
    10:00 +17°C° 0 mm 2 mps 755 mmHg 49%
    11:00 +19°C° 0 mm 2 mps 755 mmHg 44%
    12:00 +21°C° 0 mm 2 mps 754 mmHg 40%
    13:00 +24°C° 0 mm 2 mps 754 mmHg 35%
    14:00 +24°C° 0 mm 2 mps 753 mmHg 37%
    15:00 +24°C° 0 mm 2 mps 753 mmHg 39%
    16:00 +24°C° 0 mm 2 mps 752 mmHg 42%
    17:00 +20°C° 0 mm 2 mps 753 mmHg 50%
    18:00 +17°C° 0 mm 2 mps 753 mmHg 59%
    19:00 +15°C° 0 mm 1 mps 753 mmHg 68%
    20:00 +13°C° 0 mm 1 mps 753 mmHg 71%
    21:00 +12°C° 0 mm 1 mps 753 mmHg 75%
    22:00 +11°C° 0 mm 1 mps 753 mmHg 79%
    23:00 +10°C° 0 mm 1 mps 753 mmHg 83%

    3 April, Friday

    Time Temperature Precipitation Wind Pressure Humidity
    00:00 +9°C° 0 mm 1 mps 752 mmHg 87%
    01:00 +8°C° 0 mm 1 mps 752 mmHg 91%
    02:00 +8°C° 0 mm 1 mps 752 mmHg 93%
    03:00 +8°C° 0 mm 1 mps 752 mmHg 95%
    04:00 +7°C° 0 mm 1 mps 751 mmHg 97%
    05:00 +8°C° 0 mm 1 mps 751 mmHg 96%
    06:00 +8°C° 0 mm 1 mps 751 mmHg 94%
    07:00 +9°C° 0 mm 1 mps 751 mmHg 93%
    08:00 +12°C° 0 mm 1 mps 751 mmHg 77%
    09:00 +15°C° 0 mm 1 mps 751 mmHg 61%
    10:00 +20°C° 0 mm 1 mps 751 mmHg 46%
    11:00 +20°C° 0 mm 2 mps 750 mmHg 46%
    12:00 +23°C° 0 mm 2 mps 750 mmHg 46%
    13:00 +24°C° 0 mm 3 mps 750 mmHg 46%
    14:00 +24°C° 0 mm 3 mps 749 mmHg 49%
    15:00 +24°C° 0 mm 3 mps 749 mmHg 51%
    16:00 +24°C° 0 mm 3 mps 749 mmHg 54%
    17:00 +20°C° 0 mm 2 mps 749 mmHg 67%
    18:00 +18°C° 0 mm 1 mps 750 mmHg 80%
    19:00 +15°C° 0 mm 1 mps 750 mmHg 93%
    20:00 +14°C° 0 mm 1 mps 750 mmHg 94%
    21:00 +13°C° 0 mm 1 mps 750 mmHg 96%
    22:00 +13°C° 0 mm 1 mps 751 mmHg 98%
    23:00 +13°C° 0 mm 1 mps 751 mmHg 96%
    Show more